Location: Newark
(12.5331°N, 56.4669°W)
Time: 19:07:56
(UTC+00:00)

Envisat - Pass Details

Date: 01 February 2020
Orbit: 764 x 766 km, 98.1° (Epoch: 19 February)

Event Time Altitude Azimuth Distance (km) Brightness Sun altitude
Rises 22:59:33 0° 205° (SSW) 3,219 6.8 -17.8°
Reaches altitude 10° 23:02:55 10° 229° (SW) 2,293 6.4 -18.6°
Maximum altitude 23:05:35 14° 261° (W) 2,002 6.3 -19.2°
Drops below altitude 10° 23:08:15 10° 293° (WNW) 2,294 6.2 -19.9°
Sets 23:11:39 0° 317° (NW) 3,219 6.6 -20.7°
